SAWHSAWE

Guest
Details From SAWH - Ushuaia_Intl_Islas Malvinas
To SAWE - RIO GRANDE
Flight Number -
Tags generated
Created
Modified
Stats Distance 67 nm / 124 km
Max Altitude 5,800 ft / 1,768 m
Waypoints 3
Social Downloads 2
Likes 0
Share VATSIM

Download

Looking for another format? Having issues loading an existing format? Contact us
Advertisement - Login to hide

Notes

Basic altitude profile: - Ascent Rate: 2500ft/min - Ascent Speed: 250kts - Cruise Altitude: 35000ft - Cruise Speed: 420kts - Descent Rate: 1500ft/min - Descent Speed: 250kts Options: - Use NATs: yes - Use PACOTS: yes - Use low airways: yes - Use high airways: yes

Route

SAWH KEXOP SAWE

ID Type Via Altitude Latitude Longitude Leg Dist Tot Dist Heading (true) Name
O SAWH APT - 0 ft / 0 m -54.84331˚ -68.29490˚ - 0 nm - Ushuaia_Intl_Islas Malvinas
KEXOP FIX - 5,800 ft / 1,768 m -54.21500˚ -67.96500˚ 39 nm 39 nm 17° / 17° -
O SAWE APT - 0 ft / 0 m -53.77767˚ -67.74939˚ 27 nm 66 nm 16° / 16° RIO GRANDE

Altitude Profile

Advertisement - Login to hide

SAWH

Details ICAO SAWH (USH)
Name Ushuaia_Intl_Islas Malvinas
Region Argentina
Timezone America/Argentina/Ushuaia (UTC-3.0)
Stats Elevation 91 ft / 28 m (AMSL)
Location -54.843310° -68.294897°
Runways 1
Magnetic Variation 12.376° E

METAR

SAWH 211000Z 29010KT 5000 -RA OVC015 03/02 Q0996

Decode

TAF

TAF SAWH 210500Z 2106/2206 32015G25KT 9999 SCT025 BKN090 TX06/2118Z TN01/2111Z TEMPO 2106/2110 VRB03KT 8000 -RA BKN025 OVC050 BECMG 2110/2112 VRB03KT BKN030 BKN060

Decode

Departure Runways

ID Width Length Bearing (true) Bearing (mag) Surface Threshold Offset Overrun Length
07 148 ft / 45 m 9,531 ft / 2,905 m 86.11° 73.73° Concrete 591 ft / 180 m 295 ft / 90 m
25 148 ft / 45 m 9,531 ft / 2,905 m 266.08° 253.70° Concrete 899 ft / 274 m 98 ft / 30 m

SAWE

Details ICAO SAWE (RGA)
Name RIO GRANDE
Region Argentina
Timezone America/Argentina/Ushuaia (UTC-3.0)
Stats Elevation 65 ft / 20 m (AMSL)
Location -53.777667° -67.749389°
Runways 1
Magnetic Variation 11.359° E

METAR

SAWE 211000Z 32011KT CAVOK 03/01 Q0996

Decode

TAF

TAF SAWE 210500Z 2106/2206 32020G35KT 9999 SCT020 BKN090 TX09/2118Z TN01/2111Z PROB40 TEMPO 2109/2112 29020KT 8000 -RA BKN020 OVC050 BECMG 2112/2114 27020KT FEW020 SCT090

Decode

Destination Runways

ID Width Length Bearing (true) Bearing (mag) Surface Threshold Offset Overrun Length
07 131 ft / 40 m 6,535 ft / 1,992 m 87.52° 76.16° Asphalt 0 ft / 0 m 165 ft / 50 m
25 131 ft / 40 m 6,535 ft / 1,992 m 267.50° 256.14° Asphalt 0 ft / 0 m 180 ft / 55 m

Approach Navaids

Runway Type Ident Frequency Range Bearing (true) Bearing (mag) Slope Elevation
25 Localiser GR 109.50 MHz 18 nm / 33 km 267.68° 256.32° - 66 ft / 20 m (AMSL)
25 Glidescope GR 109.50 MHz 10 nm / 19 km 267.51° 256.15° 3.00° 65 ft / 20 m (AMSL)
25 DME GR 109.50 MHz 18 nm / 33 km - - - 66 ft / 20 m (AMSL)